OpenBCM V1.13 (Linux)

Packet Radio Mailbox

DB0FHN

[JN59NK Nuernberg]

 Login: GUEST





  
LU1HVK > KEP      07.10.19 08:34l 252 Lines 12372 Bytes #999 (0) @ WW
BID : 32906_LU1HVK
Read: GUEST DF7EAV DJ6UX
Subj: TLE 07 10
Path: DB0FHN<DB0BLO<DB0ERF<IZ3LSV<I0OJJ<VE2PKT<N3HYM<LU3DVN<LU3WAM<LU9HGS<
      LU1HVK
Sent: 191007/0523Z 32906@LU1HVK.2594.CBA.ARG.SA LinBPQ6.0.19

>From lu1hvk%lu1hvk.2594.cba.arg.sa@i0ojj.ampr.org Mon Oct  7 07:27:12 2019
Received: from i0ojj.ampr.org by i0ojj.ampr.org (JNOS2.0k.3b2) with SMTP
	id AA28408 ; Mon, 07 Oct 2019 07:27:12 +0200
Message-Id: <32906_LU1HVK@ve2pkt.bbs>
>From: lu1hvk@lu1hvk.2594.cba.arg.sa
X-JNOS-User-Port: Telnet   (ve2pkt @ 144.172.216.109)  -> Sending message

                         _    _   _ _ _   ___     ___  __
                        | |  | | | / | | | \ \   / / |/ /
                        | |  | | | | | |_| |\ \ / /| ' /
                        | |__| |_| | |  _  | \ V / | . \
                        |_____\___/|_|_| |_|  \_/  |_|\_\

     BBS/NODO - CORDOBA (LEONES-FF87UH) - LU1HVK-4 NODO - LU1HVK-3 APRS

+----------------------------------------------------------------------------+
OSCAR 7
1  7530U 74089B   19279.91199681 -.00000026 +00000-0 +11959-3 0  9992
2  7530 101.7586 246.4954 0012306 132.9352 288.9609 12.53640118054097
OSCAR 11 (UoSAT 2)
1 14781U 84021B   19279.67274769 +.00000039 +00000-0 +10844-4 0  9995
2 14781 097.6059 299.1568 0007557 327.3635 032.7112 14.83110254894064
OSCAR 19 (LUSAT)
1 20442U 90005G   19279.78622628 +.00000016 +00000-0 +22018-4 0  9999
2 20442 098.6570 221.6429 0011639 179.6176 180.5019 14.32934259552088
EYESAT A
1 22825U 93061C   19279.90707097 +.00000008 +00000-0 +21258-4 0  9995
2 22825 098.9126 271.1051 0009147 043.4252 316.7649 14.30067856357432
ITAMSAT
1 22826U 93061D   19279.88304814 +.00000013 +00000-0 +22939-4 0  9996
2 22826 098.9066 271.0581 0009508 032.6499 327.5269 14.30401949357654
RADIO ROSTO
1 23439U 94085A   19279.84698890 -.00000031 +00000-0 +32893-3 0  9990
2 23439 064.8154 297.9904 0145255 091.7738 269.9828 11.27568191020319
JAS 2
1 24278U 96046B   19279.87426021 -.00000029  00000-0  88863-5 0  9996
2 24278  98.5543  58.4153 0349547 314.4931  42.8117 13.53093568142702
TECHSAT 1B
1 25397U 98043D   19279.89009887 -.00000004 +00000-0 +17558-4 0  9992
2 25397 098.6962 218.7340 0002388 081.7327 278.4122 14.23671719103339
ISS (ZARYA)
1 25544U 98067A   19280.07155508  .00000076  00000-0  93523-5 0  9991
2 25544  51.6434 166.4439 0007540 122.2629  27.2905 15.50171383192616
PCSAT
1 26931U 01043C   19279.89498084 -.00000032 +00000-0 +19553-4 0  9990
2 26931 067.0505 079.2989 0007433 269.2679 090.7571 14.30554287940661
SAUDISAT 1C
1 27607U 02058C   19279.88322392 +.00000005 +00000-0 +21581-4 0  9998
2 27607 064.5547 072.6956 0075640 235.0984 124.2994 14.75576359903165
CUTE-1
1 27844U 03031E   19279.89752585 +.00000051 +00000-0 +42425-4 0  9996
2 27844 098.6857 286.4683 0010907 074.2129 286.0250 14.22197781843919
CUBESAT XI 4
1 27848U 03031J   19279.85073246 +.00000036 +00000-0 +35971-4 0  9997
2 27848 098.6932 286.9450 0010862 084.8339 275.4078 14.21790448843765
MOZHAYETS 4
1 27939U 03042A   19279.94522015 +.00000102 +00000-0 +26804-4 0  9992
2 27939 098.0570 053.7124 0014162 080.7991 279.4817 14.66807743856701
CUBESAT XI 5
1 28895U 05043F   19279.91271981 +.00000133 +00000-0 +34386-4 0  9995
2 28895 097.9752 058.9673 0016859 008.5161 351.6324 14.63696637743370
CUTE-1.7+APD II
1 32785U 08021C   19279.80985794 +.00000181 +00000-0 +25173-4 0  9996
2 32785 097.5559 274.3634 0011550 256.5815 103.4116 14.88352762619996
DELFI C3
1 32789U 08021G   19279.70410634 +.00000755 +00000-0 +54142-4 0  9990
2 32789 097.4536 325.9965 0013763 107.5992 252.6740 15.07150667623439
SEEDS
1 32791U 08021J   19279.70961562 +.00000212 +00000-0 +26866-4 0  9994
2 32791 097.5317 280.3416 0012150 227.0633 132.9568 14.90880610620427
YUBELEINY
1 32953U 08025A   19279.82695376  .00000020  00000-0  75656-4 0  9996
2 32953  82.4986  76.2635 0018769 248.4376 111.4705 12.43091405515992
PRISM (HITOMI)
1 33493U 09002B   19279.83906454 -.00000109 +00000-0 -38906-5 0  9993
2 33493 098.1217 204.9714 0014789 173.5980 186.5432 14.96752538581611
KKS-1 (KISEKI)
1 33499U 09002H   19279.87637380 +.00000058 +00000-0 +16544-4 0  9996
2 33499 098.3422 122.0644 0008413 209.2945 150.7793 14.75466786575041
SWISSCUBE
1 35932U 09051B   19279.45999403 +.00000136 +00000-0 +41755-4 0  9994
2 35932 098.5982 088.7188 0007546 180.8416 179.2769 14.56315016532716
BEESAT
1 35933U 09051C   19279.45638491 +.00000106 +00000-0 +34960-4 0  9999
2 35933 098.6001 090.5192 0005504 191.5873 168.5198 14.56400261532785
ITUPSAT 1
1 35935U 09051E   19279.92119907 +.00000095 +00000-0 +33050-4 0  9995
2 35935 098.6111 091.2280 0007859 190.8258 169.2771 14.55556188532648
XIWANG-1 (HOPE-1)
1 36122U 09072B   19279.63846330 -.00000048  00000-0 -14294-4 0  9991
2 36122 100.0782 276.8689 0008002  91.2141 268.9889 13.16351469471346
TISAT 1
1 36799U 10035E   19279.86718618 +.00000337 +00000-0 +40008-4 0  9995
2 36799 098.1699 075.7730 0013565 085.6154 274.6613 14.91169574500984
JUGNU
1 37839U 11058B   19279.73235601  .00000327  00000-0  32496-4 0  9990
2 37839  19.9625  27.4711 0019063  99.8022  52.0233 14.12660573412833
SRMSAT
1 37841U 11058D   19279.86848965 +.00000296 +00000-0 +17644-4 0  9993
2 37841 019.9724 085.6989 0011882 327.2753 183.1918 14.10640486412171
M-CUBED/EXP-1 PRIME
1 37855U 11061F   19279.85469231 +.00000819 +00000-0 +48604-4 0  9997
2 37855 101.7149 232.0057 0173030 110.1275 251.8647 15.05619014432883
HORYU 2
1 38340U 12025D   19279.75612146 +.00000136 +00000-0 +27798-4 0  9995
2 38340 098.3189 321.5914 0012553 130.0314 230.1998 14.75755734386985
STRAND 1
1 39090U 13009E   19279.52856080 +.00000016 +00000-0 +20655-4 0  9995
2 39090 098.4780 123.5960 0008604 329.3592 030.7090 14.35099366346127
SOMP
1 39134U 13015E   19279.67854423  .00001187  00000-0  62888-4 0  9990
2 39134  64.8647  24.0479 0036472 285.0719  74.6374 15.20369940357316
BEESAT 3
1 39135U 13015F   19279.79681879  .00000852  00000-0  51509-4 0  9993
2 39135  64.8692  43.5250 0035610 293.9335  65.8062 15.17634395356955
BEESAT 2
1 39136U 13015G   19279.80986120  .00000765  00000-0  48190-4 0  9998
2 39136  64.8699  47.6218 0027413 299.3872  60.4517 15.17052993356875
CUBEBUG 1
1 39153U 13018D   19279.78676347  .00000177  00000-0  30029-4 0  9993
2 39153  97.9808  17.3089 0016582 197.3266 162.7382 14.80602973348103
ZACUBE
1 39417U 13066B   19279.89112994 +.00000202 +00000-0 +31616-4 0  9996
2 39417 097.5629 287.2004 0059753 033.9660 326.5356 14.81156405317357
TRITON 1
1 39427U 13066M   19279.88688371 +.00000174 +00000-0 +35685-4 0  9991
2 39427 097.6899 250.5318 0113874 171.9529 188.3538 14.67885940314317
GOMX 1
1 39430U 13066Q   19279.88064207 +.00000168 +00000-0 +39989-4 0  9995
2 39430 097.7578 229.2370 0149877 267.0048 091.3998 14.59292729312670
HUMSAT D
1 39433U 13066T   19279.65216108  .00000315  00000-0  36018-4 0  9996
2 39433  97.5428 322.6025 0029295 294.8886  64.9289 14.92262988319474
CUBEBUG 2
1 39440U 13066AA  19279.92296408 +.00000208 +00000-0 +35581-4 0  9990
2 39440 097.6095 271.8896 0081733 086.9224 274.1335 14.75893401315031
FUNCUBE 1
1 39444U 13066AE  19279.76306041  .00000246  00000-0  36437-4 0  9994
2 39444  97.5602 289.1288 0058753  27.8689 332.5651 14.81983730316235
UWE-3
1 39446U 13066AG  19279.94131384 +.00000214 +00000-0 +34872-4 0  9998
2 39446 097.5855 279.0388 0071360 060.9024 299.9309 14.78428774314968
SPROUT
1 39770U 14029E   19279.89243434 +.00000685 +00000-0 +81711-4 0  9998
2 39770 097.8883 022.5014 0009988 083.5791 276.6541 14.87446883291211
UNISAT 6
1 40012U 14033C   19279.85176329 +.00000161 +00000-0 +31220-4 0  9997
2 40012 097.7413 141.6323 0059688 102.0294 258.7613 14.74013792284918
DUCHIFAT 1
1 40021U 14033M   19279.83159746 +.00000323 +00000-0 +38794-4 0  9992
2 40021 097.9240 204.7909 0014136 050.5860 309.6607 14.90696485287954
QB50P1
1 40025U 14033R   19279.84431732 +.00000251 +00000-0 +32610-4 0  9996
2 40025 097.9035 199.3382 0013772 060.0957 300.1626 14.88992642287208
CHUBUSAT 1
1 40300U 14070C   19279.84803338  .00000512  00000-0  25180-4 0  9992
2 40300  97.3173 351.2007 0021074  31.2822 103.8885 15.22192345272771
NUDT-PHONESAT
1 40900U 15049B   19279.76851756  .00001859  00000-0  81661-4 0  9994
2 40900  97.4383 288.0435 0013405 152.2284 317.7656 15.23103502224416
ZDPS 2A
1 40901U 15049C   19279.90243683 +.00000596 +00000-0 +32745-4 0  9991
2 40901 097.4625 284.1502 0013277 173.0661 249.7864 15.17857517223953
ZDPS 2B
1 40902U 15049D   19279.93878742 +.00001120 +00000-0 +58766-4 0  9990
2 40902 097.4577 281.5932 0013529 170.3020 247.6445 15.17720459223931
XW-2A
1 40903U 15049E   19279.90958625 +.00001697 +00000-0 +41490-4 0  9992
2 40903 097.3268 323.2459 0015062 103.5381 021.5090 15.42155203227237
KAITUO 1A
1 40904U 15049F   19279.93807861 +.00000683 +00000-0 +39571-4 0  9992
2 40904 097.4712 280.0832 0014274 179.8859 265.7613 15.15452535223695
OBJECT G
1 40905U 15049G   19279.95953961 +.00000055 +00000-0 +65809-5 0  9995
2 40905 097.4758 277.5411 0015447 175.9358 241.2272 15.14353715223569
XW-2C
1 40906U 15049H   19279.91639443 +.00000499 +00000-0 +29591-4 0  9997
2 40906 097.4714 280.1936 0014619 171.1681 276.3007 15.15770804223693
XW-2D
1 40907U 15049J   19279.82061521  .00000609  00000-0  35127-4 0  9999
2 40907  97.4695 279.7808 0014409 168.6338 314.2494 15.15966927223696
LILACSAT 2
1 40908U 15049K   19279.91347876 +.00000196 +00000-0 +14445-4 0  9991
2 40908 097.4830 278.5776 0015573 176.2024 271.2012 15.13859423223484
XW-2F
1 40910U 15049M   19279.80945692  .00001056  00000-0  56025-4 0  9998
2 40910  97.4665 281.9356 0015096 160.6937 324.2316 15.17450399223710
XW-2B
1 40911U 15049N   19279.78563777  .00000621  00000-0  35847-4 0  9992
2 40911  97.4719 280.4141 0014118 168.9089 277.1577 15.15895658223589
KAITUO 1B
1 40912U 15049P   19279.80428330  .00001045  00000-0  51930-4 0  9993
2 40912  97.4512 285.7456 0015562 142.8147 342.3523 15.19779916224037
